Temp
21 21 20 20 20 20 20 19 18 18 18 18 18 18 18 17 17 17 17 17 16 16 16 16 15 15 15 15 15 15 16 16
21 20 20 20 20 19 19 19 18 18 18 18 18 17 17 17 17 16 16 16 16 15 16 15 15 15 14 14 15 15 15 15
20 20 20 19 19 19 19 18 18 18 17 17 17 17 16 16 15 16 16 15 16 16 15 16 16 15 14 13 14 14 15 15
21 21 20 20 19 19 19 18 18 18 17 17 17 16 16 15 15 15 15 16 16 16 16 15 16 16 14 13 13 14 14 15
21 21 20 20 19 19 18 18 18 17 17 16 16 16 15 15 15 14 15 16 16 15 15 15 15 13 13 12 13 14 14 14
21 21 20 20 19 18 18 17 17 17 17 16 16 15 16 15 15 15 15 15 15 14 14 14 14 13 13 12 13 14 14 14
20 20 20 19 18 18 17 17 17 17 16 16 15 16 16 15 15 15 14 14 14 13 13 13 13 12 13 12 12 13 14 14
20 20 19 19 18 18 17 17 16 16 16 16 16 15 15 14 15 14 14 14 14 13 11 12 12 12 12 13 12 13 14 13
20 19 18 18 18 18 17 17 16 16 16 15 15 15 15 15 14 14 14 14 14 12 11 11 11 12 12 12 12 13 13 12
20 19 18 18 17 17 17 17 16 16 15 15 15 15 14 14 14 13 13 14 13 12 11 12 12 12 12 12 12 12 12 11
19 18 18 17 17 16 16 16 15 15 15 14 14 14 14 14 13 13 13 12 12 12 11 11 12 12 12 12 12 12 12 11
19 19 18 17 17 16 16 16 15 15 14 14 14 14 14 13 13 13 13 12 11 11 12 12 11 11 11 11 12 12 11 11
19 18 18 17 17 16 16 15 14 14 14 13 13 14 13 13 13 13 12 12 12 12 12 11 12 11 11 11 11 11 10 8
18 18 17 17 16 16 15 14 15 14 13 13 13 13 13 13 12 12 12 12 11 11 12 11 11 11 11 10 10 10 10 8
17 16 16 16 15 15 14 14 14 14 13 13 12 13 12 12 11 11 11 11 11 11 11 11 10 10 10 9 9 9 9 9
15 15 16 16 14 14 14 14 14 14 13 12 13 12 12 12 12 11 11 11 11 11 11 11 10 9 9 8 8 8 8 9
16 15 15 14 14 14 14 15 14 13 12 13 13 12 12 12 12 11 11 11 11 11 11 10 10 9 9 8 8 8 8 8
14 14 13 13 13 14 14 14 13 13 13 13 13 12 12 12 11 11 11 11 11 10 10 10 9 9 8 8 7 7 7 7
14 13 13 13 13 13 13 13 13 12 13 13 13 13 12 12 12 11 11 11 10 10 10 9 9 8 8 7 7 6 6 6
13 12 13 13 13 13 13 12 12 12 12 13 13 13 12 12 12 11 11 11 10 10 9 9 9 8 7 7 6 6 6 6
Height
1538 1540 1543 1545 1547 1548 1549 1551 1553 1555 1556 1557 1559 1559 1560 1561 1562 1562 1562 1562 1563 1563 1564 1564 1564 1566 1567 1569 1568 1567 1565 1564
1538 1539 1541 1544 1545 1546 1548 1550 1552 1554 1556 1557 1559 1559 1560 1561 1561 1562 1562 1562 1561 1561 1560 1562 1561 1562 1563 1567 1567 1565 1563 1563
1535 1537 1538 1541 1543 1545 1547 1549 1551 1553 1555 1557 1558 1560 1560 1561 1561 1561 1560 1559 1558 1558 1560 1559 1559 1560 1561 1562 1565 1565 1563 1561
1533 1533 1534 1537 1541 1543 1545 1547 1549 1551 1553 1554 1556 1558 1559 1560 1560 1560 1557 1558 1558 1559 1558 1557 1556 1557 1561 1559 1560 1563 1561 1560
1530 1531 1533 1535 1538 1541 1543 1545 1548 1550 1552 1555 1555 1555 1557 1558 1558 1557 1558 1558 1559 1559 1558 1554 1553 1550 1550 1555 1556 1560 1559 1558
1527 1529 1531 1533 1536 1539 1542 1544 1546 1548 1550 1551 1553 1553 1554 1556 1556 1557 1557 1557 1559 1557 1554 1552 1548 1542 1543 1550 1554 1557 1556 1555
1524 1528 1530 1531 1534 1538 1540 1542 1544 1546 1548 1549 1551 1553 1554 1555 1555 1555 1556 1555 1554 1554 1550 1550 1548 1546 1546 1550 1549 1553 1553 1554
1524 1526 1528 1530 1533 1535 1538 1540 1543 1545 1546 1549 1550 1552 1553 1554 1554 1553 1553 1553 1552 1551 1550 1548 1549 1549 1549 1551 1553 1551 1551 1551
1522 1526 1527 1528 1530 1532 1535 1539 1541 1543 1545 1546 1548 1549 1551 1551 1552 1551 1551 1550 1549 1547 1548 1549 1550 1550 1550 1551 1551 1550 1550 1550
1521 1523 1525 1526 1529 1531 1533 1537 1539 1540 1542 1544 1545 1547 1548 1549 1550 1551 1549 1548 1547 1547 1548 1549 1549 1550 1551 1551 1551 1550 1549 1549
1519 1521 1523 1524 1526 1529 1531 1534 1537 1538 1540 1543 1544 1545 1546 1546 1548 1548 1548 1547 1546 1546 1547 1549 1550 1551 1551 1551 1550 1549 1550 1550
1515 1518 1521 1523 1525 1527 1530 1533 1535 1536 1539 1541 1541 1542 1543 1545 1546 1547 1548 1548 1548 1548 1548 1549 1549 1549 1549 1550 1548 1547 1547 1548
1511 1514 1517 1521 1523 1525 1528 1530 1534 1535 1536 1537 1539 1540 1542 1544 1545 1545 1546 1546 1547 1547 1546 1547 1548 1548 1548 1548 1546 1546 1546 1546
1508 1511 1515 1518 1522 1523 1526 1528 1531 1532 1534 1536 1537 1539 1540 1542 1543 1544 1545 1545 1545 1546 1546 1546 1546 1546 1546 1545 1545 1546 1545 1546
1507 1510 1514 1517 1520 1521 1523 1526 1528 1530 1532 1534 1537 1538 1539 1541 1542 1542 1543 1544 1545 1546 1547 1548 1547 1547 1547 1549 1548 1546 1545 1545
1506 1509 1511 1514 1516 1519 1522 1524 1526 1528 1531 1534 1535 1537 1538 1539 1539 1539 1541 1542 1543 1543 1543 1543 1543 1544 1545 1546 1546 1545 1545 1543
1501 1505 1508 1511 1514 1518 1520 1523 1525 1527 1529 1531 1533 1534 1535 1537 1538 1539 1540 1540 1541 1541 1540 1540 1540 1541 1541 1542 1542 1543 1542 1541
1497 1501 1505 1509 1512 1516 1519 1522 1524 1525 1527 1529 1530 1531 1533 1534 1536 1537 1538 1538 1538 1538 1538 1537 1537 1538 1539 1539 1540 1540 1540 1539
1494 1498 1502 1507 1511 1514 1517 1520 1522 1524 1525 1527 1529 1530 1532 1533 1534 1535 1535 1537 1537 1537 1537 1535 1535 1535 1536 1536 1537 1536 1536 1535
1490 1495 1500 1504 1508 1512 1515 1518 1520 1522 1523 1524 1526 1528 1529 1531 1532 1533 1535 1534 1533 1535 1535 1534 1533 1533 1534 1535 1534 1533 1532 1531
Wind_Speed
20 20 19 18 16 16 15 14 13 12 11 10 8 7 5 4 3 4 4 4 4 4 4 5 6 7 8 7 8 10 11 10
15 19 20 19 18 17 16 15 14 12 12 10 9 7 6 5 5 5 5 5 5 4 5 6 5 8 10 12 9 11 11 10
13 15 21 22 20 19 17 16 14 14 13 11 10 8 8 6 5 6 7 8 9 10 7 7 12 12 14 13 15 12 11 12
14 15 19 24 23 20 18 17 16 15 14 12 10 10 9 9 8 7 11 11 12 12 11 17 27 23 24 14 17 12 12 12
14 13 17 23 23 21 19 17 16 15 14 11 11 12 12 12 11 11 9 13 13 13 15 22 18 23 35 14 16 12 9 10
16 12 15 20 21 20 17 14 15 14 13 13 13 14 14 11 11 11 12 14 14 16 18 17 17 18 22 9 10 12 13 9
19 13 13 18 20 18 13 8 12 11 11 11 13 11 9 8 12 12 14 14 15 17 15 8 5 6 6 2 11 12 10 6
22 15 13 15 17 18 13 12 13 12 11 9 9 8 9 10 10 13 13 15 19 13 7 2 4 3 3 5 7 7 11 4
25 17 14 17 18 17 15 13 14 15 15 13 10 9 10 11 11 12 13 17 12 8 10 3 3 4 5 5 6 6 5 4
25 20 19 20 19 16 17 15 15 18 16 14 13 12 11 12 12 10 10 7 5 2 3 2 5 7 7 5 6 6 6 3
28 25 23 25 25 21 20 17 17 19 18 15 14 13 14 13 10 5 3 3 4 1 3 3 6 7 6 6 7 8 6 5
31 29 26 25 27 25 23 20 19 18 15 17 16 16 15 10 6 4 2 5 5 6 6 7 7 6 6 5 5 5 4 6
34 32 30 27 25 25 23 21 20 17 17 17 15 15 11 7 5 4 6 8 9 9 9 8 9 11 10 11 9 8 9 7
35 34 30 27 22 20 19 17 18 18 17 16 15 12 9 7 6 8 8 8 9 9 8 7 7 9 10 11 8 13 15 13
34 32 29 25 21 19 17 18 18 18 20 17 13 10 7 7 7 7 7 7 7 6 5 8 11 12 12 9 7 7 6 10
29 27 25 22 21 17 17 19 19 18 16 14 12 9 9 8 7 6 6 5 6 9 11 9 11 13 14 14 16 16 13 10
27 24 24 21 17 16 18 17 14 14 16 13 13 10 9 8 6 5 5 6 7 7 7 7 7 8 11 14 17 15 14 15
25 24 21 17 17 18 17 17 16 15 15 15 12 11 9 8 6 6 6 6 6 5 3 4 5 6 8 11 13 12 16 15
22 22 21 19 18 18 18 17 14 12 12 12 12 10 9 7 6 6 6 6 6 4 4 4 4 4 5 8 9 10 13 15
22 22 21 21 21 19 19 17 14 11 10 10 9 8 6 6 6 5 7 7 7 7 7 7 7 7 6 8 10 11 12 13
Wind_Direction
190 193 190 191 190 190 190 190 191 188 191 199 201 209 219 231 261 276 282 284 288 288 285 284 301 302 296 282 277 272 277 275
194 204 202 199 198 195 197 196 197 198 202 207 212 221 229 240 258 278 286 290 289 269 258 274 277 290 299 295 279 271 268 273
213 213 212 206 206 202 201 203 203 205 210 214 221 230 238 243 251 259 266 259 252 259 269 295 286 285 280 289 286 272 267 269
214 221 216 209 208 207 208 209 209 213 217 218 223 231 238 239 243 241 247 272 274 275 275 290 289 272 276 271 287 272 274 265
212 214 209 210 209 209 212 214 216 220 223 228 230 232 236 237 237 247 275 289 287 288 291 285 308 309 252 274 280 275 279 276
214 198 201 209 209 210 218 224 227 225 233 233 230 232 239 248 258 270 273 281 289 297 306 305 310 320 215 243 282 291 311 322
214 186 184 204 202 193 191 215 206 203 206 214 218 232 249 256 262 273 276 286 305 317 307 302 313 158 168 192 270 305 314 288
213 187 183 186 188 196 189 192 184 200 205 214 226 240 251 253 263 269 274 293 306 308 279 266 176 170 214 254 284 313 320 330
209 188 180 187 194 202 200 210 220 217 221 220 229 257 252 246 254 258 275 296 303 273 234 225 193 219 236 282 308 328 313 330
202 189 187 195 203 206 204 211 220 221 223 225 235 245 243 248 247 268 285 301 302 163 187 224 240 235 258 288 307 341 353 85
198 195 195 198 204 205 200 203 205 206 215 230 238 240 249 244 263 257 256 261 205 193 254 235 231 240 264 296 318 328 341 326
200 200 202 202 207 210 210 209 218 227 238 244 240 244 241 256 250 264 222 175 192 219 252 271 276 271 286 292 317 335 314 296
203 204 205 208 208 211 213 218 225 222 226 242 229 230 238 227 232 221 172 184 202 229 248 250 271 281 296 302 303 311 303 295
203 206 209 212 218 220 221 224 224 222 229 232 223 223 217 216 203 196 201 213 220 220 229 244 259 270 285 302 309 308 298 276
201 205 209 213 216 215 211 209 215 220 224 217 212 209 219 215 209 205 212 218 224 216 224 271 270 266 262 263 273 265 285 290
206 211 215 213 211 210 222 221 219 224 218 214 209 212 214 218 205 191 190 201 219 253 268 258 252 254 255 247 259 268 280 285
208 211 214 212 210 212 217 213 216 213 212 214 206 220 217 204 203 207 220 239 234 229 239 249 257 260 261 257 256 264 270 275
210 213 205 204 201 207 209 209 211 213 215 208 218 219 212 209 213 224 219 227 241 253 272 283 281 279 273 271 270 265 255 264
197 198 199 193 200 202 203 203 210 219 215 216 220 217 222 229 229 229 230 264 265 272 280 300 304 300 285 276 274 272 269 266
194 196 194 186 197 200 201 201 211 212 202 212 216 218 212 227 221 228 270 278 263 286 305 314 305 299 290 285 281 276 271 272